FW7308 Weather Reports


time (UTC)temp
F
wind
direction
speed
knots
gust
knots
rain 1hr
in
rain 24hr
in
rain mn
in
humidity
%
barometer
mb
20260508020137 40 329 1.7 1.7 0.00 0.00 0.00 75 1010.5
20260508015639 40 324 1.7 1.7 0.00 0.00 0.00 76 1010.5
20260508014636 40 334 1.7 2.6 0.00 0.00 0.00 75 1010.3
20260508014236 40 329 1.7 1.7 0.00 0.00 0.00 75 1010.5
20260508013638 40 327 1.7 1.7 0.00 0.00 0.00 76 1010.5
20260508013137 40 327 1.7 1.7 0.00 0.00 0.00 76 1010.1
20260508012235 41 325 1.7 1.7 0.00 0.00 0.00 75 1010.1
20260508011736 41 324 0.9 1.7 0.00 0.00 0.00 73 1010.0
20260508011135 41 325 0.9 0.9 0.00 0.00 0.00 72 1009.8
20260508010133 42 328 0.9 0.9 0.00 0.00 0.00 71 1009.8
20260508005634 42 328 0.9 0.9 0.00 0.00 0.00 69 1009.8
20260508005133 43 334 0.9 0.9 0.00 0.00 0.00 67 1009.8
20260508004632 43 336 0.9 0.9 0.00 0.00 0.00 69 1009.6
20260508004131 44 327 0.9 0.9 0.00 0.00 0.00 66 1009.4
20260508003633 44 328 0.9 0.9 0.00 0.00 0.00 66 1009.4
20260508003132 45 0.0 0.0 0.00 0.00 0.00 60 1009.8
20260508002633 45 0.0 0.0 0.00 0.00 0.00 61 1009.4
20260508002132 46 338 0.9 0.9 0.00 0.00 0.00 59 1009.4
20260508001631 47 332 0.0 0.9 0.00 0.00 0.00 55 1009.4
20260508001131 47 336 0.0 0.9 0.00 0.00 0.00 55 1009.1
20260508000630 48 0.0 0.0 0.00 0.00 0.00 53 1009.4
20260507235631 49 324 1.7 1.7 0.00 0.00 0.00 51 1009.1
20260507235129 49 326 0.9 1.7 0.00 0.00 0.00 50 1009.1
20260507234628 49 336 0.9 0.9 0.00 0.00 0.00 49 1009.1
20260507234128 49 282 2.6 4.3 0.00 0.00 0.00 49 1009.1
20260507233629 50 352 2.6 5.2 0.00 0.00 0.00 49 1009.1
20260507233130 50 317 2.6 4.3 0.00 0.00 0.00 47 1009.1
20260507232627 50 333 1.7 1.7 0.00 0.00 0.00 49 1009.1
20260507232227 50 335 1.7 4.3 0.00 0.00 0.00 47 1008.7
20260507231625 50 346 3.5 6.1 0.00 0.00 0.00 47 1008.9
20260507231126 51 303 2.6 5.2 0.00 0.00 0.00 47 1008.7
20260507230626 51 350 3.5 4.3 0.00 0.00 0.00 47 1008.7
20260507220121 55 287 5.2 7.8 0.00 0.00 0.00 43 1008.7
20260507215622 53 323 2.6 5.2 0.00 0.00 0.00 43 1008.4
20260507215122 54 296 3.5 5.2 0.00 0.00 0.00 44 1008.7
20260507214621 55 340 2.6 7.8 0.00 0.00 0.00 44 1008.7
20260507214122 54 327 5.2 7.0 0.00 0.00 0.00 44 1008.7
20260507213619 55 309 2.6 4.3 0.00 0.00 0.00 43 1008.7
20260507213120 55 309 3.5 5.2 0.00 0.00 0.00 43 1008.7
20260507212619 53 336 4.3 7.0 0.00 0.00 0.00 43 1008.7
20260507212118 55 320 6.1 7.8 0.00 0.00 0.00 42 1008.7
20260507211617 55 318 2.6 5.2 0.00 0.00 0.00 44 1008.7
20260507211119 55 41 4.3 6.1 0.00 0.00 0.00 43 1008.7
20260507210618 55 343 2.6 4.3 0.00 0.00 0.00 43 1008.7
20260507210117 55 321 3.5 5.2 0.00 0.00 0.00 44 1008.7
20260507205118 56 92 2.6 7.0 0.00 0.00 0.00 44 1008.4
20260507204617 56 329 2.6 6.1 0.00 0.00 0.00 44 1008.7
20260507204146 55 349 4.3 6.1 0.00 0.00 0.00 43 1008.7
20260507203645 56 29 1.7 4.3 0.00 0.00 0.00 44 1008.7
20260507203144 56 311 3.5 5.2 0.00 0.00 0.00 43 1008.4
20260507202647 56 287 4.3 6.1 0.00 0.00 0.00 41 1008.6
20260507202145 56 356 6.1 7.8 0.00 0.00 0.00 42 1008.7
20260507201647 55 302 5.2 8.7 0.00 0.00 0.00 44 1008.6
20260507201145 55 328 2.6 2.6 0.00 0.00 0.00 44 1008.7
20260507200644 55 349 3.5 7.0 0.00 0.00 0.00 45 1008.7
20260507200143 53 14 5.2 12.2 0.00 0.00 0.00 46 1008.7
20260507195642 54 301 6.1 8.7 0.00 0.00 0.00 42 1008.6
20260507195142 56 286 5.2 7.0 0.00 0.00 0.00 42 1008.7
20260507194643 55 16 2.6 5.2 0.00 0.00 0.00 43 1008.7
20260507194142 55 324 4.3 7.8 0.00 0.00 0.00 44 1008.7
20260507193142 54 288 7.0 11.3 0.00 0.00 0.00 44 1008.7
20260507192642 53 358 3.5 6.1 0.00 0.00 0.00 46 1008.7
20260507192141 53 348 2.6 5.2 0.00 0.00 0.00 45 1008.7
20260507191640 54 298 4.3 5.2 0.00 0.00 0.00 44 1008.7
20260507191139 55 291 6.1 9.6 0.00 0.00 0.00 43 1008.9
20260507190641 57 359 1.7 4.3 0.00 0.00 0.00 44 1009.1
20260507185639 56 277 2.6 5.2 0.00 0.00 0.00 44 1009.1
20260507185138 56 341 3.5 7.0 0.00 0.00 0.00 46 1009.1
20260507184639 55 343 4.3 7.0 0.00 0.00 0.00 42 1009.1
20260507184138 55 320 3.5 5.2 0.00 0.00 0.00 43 1009.1
20260507183637 56 332 4.3 7.0 0.00 0.00 0.00 42 1009.3
20260507183137 56 325 4.3 11.3 0.00 0.00 0.00 44 1009.4
20260507182638 54 358 4.3 7.0 0.00 0.00 0.00 46 1009.4
20260507182137 54 350 6.1 7.8 0.00 0.00 0.00 45 1009.3
20260507181637 54 348 3.5 7.0 0.00 0.00 0.00 46 1009.6
20260507181135 54 19 4.3 6.1 0.00 0.00 0.00 44 1009.4
20260507180637 55 23 5.2 7.8 0.00 0.00 0.00 44 1009.6
20260507180136 55 9 3.5 7.8 0.00 0.00 0.00 46 1009.4
20260507175635 55 349 5.2 12.2 0.00 0.00 0.00 45 1009.4
20260507175134 55 281 5.2 8.7 0.00 0.00 0.00 46 1009.4
20260507174633 55 312 4.3 5.2 0.00 0.00 0.00 45 1009.4
20260507174134 55 349 6.1 8.7 0.00 0.00 0.00 45 1009.4
20260507173634 55 321 5.2 9.6 0.00 0.00 0.00 48 1009.4
20260507173133 54 297 5.2 7.0 0.00 0.00 0.00 47 1009.4
20260507172632 53 352 4.3 6.1 0.00 0.00 0.00 48 1009.4
20260507172133 53 307 4.3 8.7 0.00 0.00 0.00 50 1009.4
20260507171632 54 351 8.7 11.3 0.00 0.00 0.00 49 1009.4
20260507171132 55 16 4.3 7.0 0.00 0.00 0.00 48 1009.4
20260507170631 53 310 3.5 6.1 0.00 0.00 0.00 49 1009.4
20260507170132 55 311 4.3 8.7 0.00 0.00 0.00 50 1009.4
20260507165631 53 350 2.6 4.3 0.00 0.00 0.00 48 1009.8
20260507164630 54 334 2.6 6.1 0.00 0.00 0.00 51 1010.1
20260507164129 54 331 4.3 7.8 0.00 0.00 0.00 50 1009.8
20260507163129 52 314 4.3 7.0 0.00 0.00 0.00 52 1010.1
20260507162628 51 353 3.5 6.1 0.00 0.00 0.00 53 1010.1
20260507162234 51 348 3.5 4.3 0.00 0.00 0.00 51 1010.5
20260507161632 51 324 4.3 8.7 0.00 0.00 0.00 53 1010.1
20260507161130 52 314 6.1 9.6 0.00 0.00 0.00 51 1010.1
20260507160627 52 325 6.1 7.8 0.00 0.00 0.00 50 1010.1
20260507160126 52 332 4.3 7.0 0.00 0.00 0.00 50 1010.3
20260507155627 52 16 1.7 5.2 0.00 0.00 0.00 52 1010.5
20260507155127 52 348 2.6 5.2 0.00 0.00 0.00 50 1010.5
20260507154626 52 351 7.0 8.7 0.00 0.00 0.00 50 1010.5
20260507154125 52 328 7.0 9.6 0.00 0.00 0.00 49 1010.5
20260507153626 51 10 7.0 12.2 0.00 0.00 0.00 49 1010.5
20260507153125 52 334 3.5 6.1 0.00 0.00 0.00 48 1010.5
20260507152624 51 314 4.3 7.8 0.00 0.00 0.00 51 1010.9
20260507152124 51 295 3.5 6.1 0.00 0.00 0.00 51 1010.5
20260507151625 51 303 4.3 7.8 0.00 0.00 0.00 48 1010.5
20260507151125 52 46 3.5 6.1 0.00 0.00 0.00 51 1010.5
20260507150623 52 346 3.5 8.7 0.00 0.00 0.00 50 1010.5
20260507150123 51 14 5.2 9.6 0.00 0.00 0.00 51 1010.5
20260507145625 50 293 2.6 7.0 0.00 0.00 0.00 50 1010.5
20260507145123 51 341 6.1 13.0 0.00 0.00 0.00 50 1010.5
20260507144622 51 326 4.3 5.2 0.00 0.00 0.00 52 1010.5
20260507144121 51 327 8.7 13.0 0.00 0.00 0.00 51 1010.7
20260507143623 51 354 3.5 7.0 0.00 0.00 0.00 52 1010.5
20260507143222 50 288 3.5 5.2 0.00 0.00 0.00 54 1010.5
20260507142722 50 327 5.2 11.3 0.00 0.00 0.00 54 1010.5
20260507142121 50 1 4.3 7.0 0.00 0.00 0.00 53 1010.5
20260507141622 49 320 7.8 12.2 0.00 0.00 0.00 54 1010.5
20260507141122 50 309 7.0 8.7 0.00 0.00 0.00 54 1010.5
20260507140620 50 297 3.5 5.2 0.00 0.00 0.00 59 1010.5
20260507140119 49 323 7.0 11.3 0.00 0.00 0.00 56 1010.5
20260507135719 49 12 5.2 8.7 0.00 0.00 0.00 57 1010.1
20260507135117 50 11 5.2 11.3 0.00 0.00 0.00 60 1010.5
20260507134619 50 325 6.1 11.3 0.00 0.00 0.00 62 1010.5
20260507134118 49 294 2.6 4.3 0.00 0.00 0.00 61 1010.1
20260507133717 49 349 4.3 5.2 0.00 0.00 0.00 63 1010.3
20260507133118 49 341 1.7 2.6 0.00 0.00 0.00 63 1010.1
20260507132617 49 335 2.6 5.2 0.00 0.00 0.00 66 1010.1
20260507132118 48 326 4.3 7.0 0.00 0.00 0.00 67 1010.1
20260507131617 49 337 1.7 2.6 0.00 0.00 0.00 71 1010.3
20260507131147 48 336 3.5 4.3 0.00 0.00 0.00 72 1010.1
20260507130646 49 317 3.5 5.2 0.00 0.00 0.00 74 1010.1
20260507130145 49 17 6.1 8.7 0.00 0.00 0.00 76 1010.1
20260507125646 49 331 2.6 2.6 0.00 0.00 0.00 76 1010.1
20260507124645 48 358 1.7 4.3 0.00 0.00 0.00 79 1010.1
20260507124144 48 306 1.7 2.6 0.00 0.00 0.00 81 1010.1
20260507123643 47 312 3.5 5.2 0.00 0.00 0.00 81 1010.1
20260507123145 47 354 2.6 4.3 0.00 0.00 0.00 88 1010.1
20260507122644 46 350 0.9 1.7 0.00 0.00 0.00 90 1010.0
20260507122142 44 340 2.6 6.1 0.00 0.00 0.00 91 1010.1
20260507121642 45 310 2.6 6.1 0.00 0.00 0.00 93 1010.0
20260507121142 45 323 0.9 1.7 0.00 0.00 0.00 94 1009.8
20260507120642 45 303 1.7 4.3 0.00 0.00 0.00 94 1009.8
20260507115641 45 343 1.7 2.6 0.00 0.00 0.00 96 1009.8
20260507115243 45 0.0 0.0 0.00 0.00 0.00 96 1009.8
20260507114644 45 0.0 0.0 0.00 0.00 0.00 96 1009.8
20260507114141 45 344 0.9 0.9 0.00 0.00 0.00 94 1009.8
20260507113639 45 338 0.9 1.7 0.00 0.00 0.00 95 1009.8
20260507112639 45 331 0.9 1.7 0.00 0.00 0.00 94 1009.8
20260507112138 45 330 0.9 1.7 0.00 0.00 0.00 93 1009.8
20260507111638 45 331 0.0 0.9 0.00 0.00 0.00 93 1009.8
20260507111136 45 338 1.7 1.7 0.00 0.00 0.00 93 1009.8
20260507110638 45 336 0.9 1.7 0.00 0.00 0.00 92 1009.8
20260507110137 45 327 2.6 4.3 0.00 0.00 0.00 92 1009.8
20260507105636 45 303 2.6 5.2 0.00 0.00 0.00 95 1009.8
20260507105135 44 330 3.5 5.2 0.00 0.00 0.00 96 1009.3
20260507104637 43 336 2.6 2.6 0.00 0.00 0.00 99 1009.1
20260507104137 43 360 0.9 2.6 0.00 0.00 0.00 99 1009.1
20260507103637 42 348 5.2 7.8 0.00 0.00 0.00 99 1009.1
20260507103134 42 334 2.6 5.2 0.00 0.00 0.00 99 1009.1
20260507102639 41 15 4.3 7.8 0.00 0.00 0.00 99 1009.1
20260507102135 41 338 0.9 0.9 0.00 0.00 0.00 99 1008.9
20260507101634 41 350 1.7 2.6 0.00 0.00 0.00 99 1008.7
20260507101133 41 351 2.6 4.3 0.00 0.00 0.00 99 1009.1
20260507100632 41 347 1.7 1.7 0.00 0.00 0.00 99 1008.9
20260507100133 41 346 0.9 1.7 0.00 0.00 0.00 99 1009.1
20260507095633 41 341 0.9 0.9 0.00 0.00 0.00 99 1009.1
20260507095132 41 337 0.0 0.9 0.00 0.00 0.00 99 1009.1
20260507094631 41 336 0.0 0.9 0.00 0.00 0.00 99 1009.1
20260507094132 41 339 0.9 0.9 0.00 0.00 0.00 99 1009.4
20260507093633 41 336 0.0 0.9 0.00 0.00 0.00 99 1009.4
20260507093131 41 343 2.6 5.2 0.00 0.00 0.00 99 1009.1
20260507092630 41 348 1.7 1.7 0.00 0.00 0.00 99 1009.4
20260507092129 41 336 0.9 1.7 0.00 0.00 0.00 99 1009.3
20260507091630 41 0.0 0.0 0.00 0.00 0.00 99 1009.1
20260507091129 41 345 1.7 1.7 0.00 0.00 0.00 99 1009.4
20260507090628 41 349 0.9 0.9 0.00 0.00 0.00 99 1009.4
20260507085629 42 356 0.9 1.7 0.00 0.00 0.00 99 1009.4
20260507085130 41 325 2.6 2.6 0.00 0.00 0.00 99 1009.8
20260507084628 42 352 1.7 1.7 0.00 0.00 0.00 99 1009.8
20260507084126 41 338 0.9 1.7 0.00 0.00 0.00 99 1009.8
20260507083628 41 327 0.9 0.9 0.00 0.00 0.00 99 1009.8
20260507083127 41 0.0 0.0 0.00 0.00 0.00 99 1009.4
20260507082626 41 350 0.0 0.9 0.00 0.00 0.00 99 1009.1
20260507082226 42 0.0 0.0 0.00 0.00 0.00 99 1009.1
20260507081626 42 352 0.9 1.7 0.00 0.00 0.00 99 1009.1
20260507081126 42 348 0.9 0.9 0.00 0.00 0.00 99 1009.4
20260507080624 42 341 0.9 0.9 0.00 0.00 0.00 99 1009.4
20260507080126 42 341 0.9 0.9 0.00 0.00 0.00 99 1009.3
20260507075127 42 340 0.9 0.9 0.00 0.00 0.00 99 1009.4
20260507074723 42 332 0.9 0.9 0.00 0.00 0.00 99 1009.4
20260507074124 42 329 0.9 1.7 0.00 0.00 0.00 99 1009.4
20260507073624 42 343 0.9 0.9 0.00 0.00 0.00 99 1009.4
20260507063119 42 343 1.7 1.7 0.00 0.00 0.00 99 1008.7
20260507062658 42 335 1.7 1.7 0.00 0.00 0.00 99 1008.7
20260507052147 43 0.0 0.0 0.00 0.00 0.00 99 1009.8
20260507051645 43 352 0.9 0.9 0.00 0.00 0.00 99 1009.8
20260507051142 43 342 0.0 0.9 0.00 0.00 0.00 99 1009.8
20260507050643 43 0.0 0.0 0.00 0.00 0.00 99 1009.8
20260507050142 43 0.0 0.0 0.00 0.00 0.00 99 1009.6
20260507045641 43 343 0.0 0.9 0.00 0.00 0.00 99 1009.4
20260507045141 43 344 0.0 0.9 0.00 0.00 0.00 99 1009.8
20260507044642 43 0.0 0.0 0.00 0.00 0.00 99 1009.8
20260507044141 43 0.0 0.0 0.00 0.00 0.00 99 1009.1
20260507043640 43 341 0.0 0.9 0.00 0.00 0.00 99 1009.4
20260507043140 43 0.0 0.0 0.00 0.00 0.00 99 1009.4
20260507042641 43 334 0.9 0.9 0.00 0.00 0.00 99 1009.3
20260507041140 43 0.0 0.0 0.00 0.00 0.00 99 1009.6
20260507040638 44 150 1.7 4.3 0.00 0.00 0.00 99 1009.4
20260507040140 44 341 0.0 0.9 0.00 0.00 0.00 99 1009.8
20260507035638 44 0.0 0.0 0.00 0.00 0.70 99 1009.6
20260507035137 44 338 0.9 1.7 0.00 0.00 0.70 99 1009.4
20260507034636 44 338 1.7 1.7 0.00 0.00 0.70 99 1009.4
20260507034138 44 311 3.5 5.2 0.00 0.00 0.70 99 1009.8
20260507033637 44 343 1.7 1.7 0.00 0.00 0.70 99 1009.8
20260507033136 44 348 0.9 1.7 0.00 0.00 0.70 99 1009.4
20260507032635 44 327 0.9 0.9 0.00 0.00 0.70 99 1009.6
20260507032136 44 336 0.9 2.6 0.00 0.00 0.70 99 1009.4
20260507031635 44 318 0.9 1.7 0.00 0.00 0.70 99 1009.4
20260507031136 44 348 1.7 2.6 0.00 0.00 0.70 99 1009.6
20260507030635 45 336 0.9 1.7 0.00 0.00 0.70 99 1009.4
20260507030134 45 333 0.9 1.7 0.00 0.00 0.70 99 1009.8
20260507025633 45 341 0.9 1.7 0.00 0.00 0.70 99 1009.8
20260507025132 45 332 2.6 5.2 0.00 0.00 0.70 99 1009.6
20260507024634 45 315 1.7 2.6 0.00 0.00 0.70 99 1009.4
20260507024133 45 338 1.7 2.6 0.00 0.00 0.70 99 1009.4
20260507023632 45 334 2.6 4.3 0.00 0.00 0.70 99 1009.4
20260507023131 45 340 0.9 0.9 0.00 0.00 0.70 99 1009.6
20260507022632 46 323 0.9 1.7 0.00 0.00 0.70 99 1009.4
20260507022132 46 334 1.7 4.3 0.00 0.00 0.69 99 1009.4
20260507021631 46 333 0.9 0.9 0.00 0.00 0.69 99 1009.8
20260507021233 46 311 2.6 2.6 0.00 0.00 0.69 99 1009.4
20260507020631 46 357 3.5 7.0 0.00 0.00 0.69 99 1009.4